Powrót do katalogu

COSMOS 2535 DEB

LostPO
NORAD 45011·DEBRIS·🇷🇺 Russia

Wystrzelony Jul 10, 2019 z Plesetsk Cosmodrome

Loading…

Następne Przeloty (najbliższe 24 godziny)

TLE

NieaktualneSource: Space-Track

Epoka: Jan 14, 2020, 02:09 UTC

1 45011U 19039AC  20014.08995997 -.00437279  00000-0 -90580-1 0  9993
2 45011  97.0487  68.2009 0128467 313.1128  45.9383 14.57307958   663

Śledź COSMOS 2535 DEB w czasie rzeczywistym z AllMySat

Download on the App Store